Weather History for Bainbridge, GA

Change the Weather History Date:

Friday, December 7, 2012

  Actual Average (KMAI) Record (KMAI)
Temperature  
Mean Temperature 63 °F 54 °F  
Max Temperature 69 °F 66 °F 79 °F (1998)
Min Temperature 57 °F 43 °F 27 °F (1997)
Degree Days  
Heating Degree Days 2    
Month to date heating degree days  
Since 1 July heating degree days  
Cooling Degree Days 0    
Month to date cooling degree days  
Year to date cooling degree days  
Growing Degree Days 13 (Base 50)    
Moisture  
Dew Point 58 °F    
Average Humidity 86    
Maximum Humidity 94    
Minimum Humidity 68    
Precipitation  
Precipitation 0.00 in 0.14 in 0.64 in (2004)
Month to date precipitation 1.00  
Year to date precipitation 50.67  
Sea Level Pressure  
Sea Level Pressure 30.02 in    
Wind  
Wind Speed 8 mph (ENE)    
Max Wind Speed 14 mph    
Max Gust Speed -    
Visibility 9 miles    
Events      
T = Trace of Precipitation, MM = Missing Value Source: NWS Daily Summary

Daily Weather History Graph

Daily Weather History Graph

Search for Another Location

Airport:

Trip Planner

Search our weather history database for the weather conditions in past years. The results will help you decide how hot, cold, wet, or windy it might be!

Date:

Astronomy

Dec. 07, 2012 Rise Set
Actual Time 7:23 AM EST 5:36 PM EST
Civil Twilight 6:57 AM EST 6:03 PM EST
Nautical Twilight 6:27 AM EST 6:33 PM EST
Astronomical Twilight 5:58 AM EST 7:02 PM EST
Moon 1:04 AM EST (12/7) 1:13 PM EST (12/7)
Length of Visible Light 11h 05m
Length of Day
10h 12m
Last Quarter, 39% of the Moon is Illuminated
Dec 7
Last Quarter
Dec 13
New
Dec 20
First Quarter
Dec 28
Full
Jan 4
Last Quarter

Hourly Weather History & Observations

Time (EST) Temp. Dew Point Humidity Pressure Visibility Wind Dir Wind Speed Gust Speed Precip Events Conditions
12:15 AM 62.6 °F 59.0 °F 88% 30.04 in 10.0 mi ENE 10.4 mph - N/A   Mostly Cloudy
12:35 AM 62.6 °F 59.0 °F 88% 30.04 in 10.0 mi East 10.4 mph - N/A   Mostly Cloudy
12:55 AM 62.6 °F 59.0 °F 88% 30.04 in 10.0 mi East 8.1 mph - N/A   Mostly Cloudy
1:15 AM 62.6 °F 59.0 °F 88% 30.04 in 10.0 mi ENE 8.1 mph - N/A   Overcast
1:35 AM 62.6 °F 59.0 °F 88% 30.03 in 10.0 mi East 6.9 mph - N/A   Overcast
1:55 AM 62.6 °F 59.0 °F 88% 30.03 in 10.0 mi ENE 8.1 mph - N/A   Overcast
2:15 AM 62.6 °F 59.0 °F 88% 30.03 in 10.0 mi ENE 8.1 mph - N/A   Overcast
2:35 AM 62.6 °F 59.0 °F 88% 30.02 in 10.0 mi East 9.2 mph - N/A   Overcast
2:55 AM 62.6 °F 59.0 °F 88% 30.01 in 10.0 mi ENE 8.1 mph - N/A   Overcast
3:15 AM 62.6 °F 59.0 °F 88% 30.02 in 10.0 mi East 9.2 mph - N/A   Overcast
3:35 AM 62.6 °F 59.0 °F 88% 30.01 in 10.0 mi ENE 8.1 mph - N/A   Overcast
3:55 AM 62.6 °F 59.0 °F 88% 30.02 in 10.0 mi ENE 9.2 mph - N/A   Overcast
4:15 AM 62.6 °F 59.0 °F 88% 30.01 in 10.0 mi ENE 12.7 mph - N/A   Overcast
4:35 AM 62.6 °F 59.0 °F 88% 30.02 in 10.0 mi East 11.5 mph - N/A   Overcast
4:55 AM 62.6 °F 57.2 °F 82% 30.01 in 10.0 mi East 10.4 mph - N/A   Overcast
5:15 AM 62.6 °F 57.2 °F 82% 30.01 in 10.0 mi East 10.4 mph - N/A   Overcast
5:35 AM 62.6 °F 57.2 °F 82% 30.01 in 10.0 mi East 9.2 mph - N/A   Overcast
5:55 AM 62.6 °F 57.2 °F 82% 30.02 in 10.0 mi East 11.5 mph - N/A   Overcast
6:15 AM 62.6 °F 59.0 °F 88% 30.02 in 10.0 mi East 9.2 mph - N/A   Overcast
6:35 AM 62.6 °F 59.0 °F 88% 30.03 in 10.0 mi NE 9.2 mph - N/A   Overcast
6:55 AM 62.6 °F 59.0 °F 88% 30.04 in 10.0 mi NE 6.9 mph - N/A   Overcast
7:15 AM 62.6 °F 59.0 °F 88% 30.05 in 10.0 mi ENE 10.4 mph - N/A   Overcast
7:35 AM 62.6 °F 59.0 °F 88% 30.05 in 10.0 mi ENE 8.1 mph - N/A   Overcast
7:55 AM 60.8 °F 57.2 °F 88% 30.05 in 7.0 mi East 9.2 mph - N/A   Overcast
8:15 AM 60.8 °F 57.2 °F 88% 30.05 in 10.0 mi ENE 10.4 mph - N/A   Overcast
8:35 AM 60.8 °F 57.2 °F 88% 30.05 in 10.0 mi East 9.2 mph - N/A   Overcast
8:55 AM 60.8 °F 57.2 °F 88% 30.06 in 10.0 mi ENE 10.4 mph - N/A   Overcast
9:15 AM 60.8 °F 59.0 °F 94% 30.06 in 10.0 mi ENE 13.8 mph - N/A   Overcast
9:35 AM 62.6 °F 59.0 °F 88% 30.07 in 10.0 mi ENE 9.2 mph - N/A   Overcast
9:55 AM 62.6 °F 59.0 °F 88% 30.07 in 10.0 mi ENE 10.4 mph - N/A   Overcast
10:15 AM 62.6 °F 59.0 °F 88% 30.08 in 10.0 mi East 9.2 mph - N/A   Overcast
10:35 AM 62.6 °F 57.2 °F 82% 30.08 in 10.0 mi East 8.1 mph - N/A   Overcast
10:55 AM 62.6 °F 57.2 °F 82% 30.07 in 10.0 mi East 9.2 mph - N/A   Overcast
11:15 AM 62.6 °F 57.2 °F 82% 30.07 in 10.0 mi ENE 8.1 mph - N/A   Overcast
11:35 AM 62.6 °F 57.2 °F 82% 30.06 in 10.0 mi ENE 6.9 mph - N/A   Overcast
11:55 AM 62.6 °F 57.2 °F 82% 30.06 in 10.0 mi ESE 4.6 mph - N/A   Overcast
12:15 PM 62.6 °F 57.2 °F 82% 30.05 in 10.0 mi East 3.5 mph - N/A   Overcast
12:35 PM 62.6 °F 57.2 °F 82% 30.04 in 10.0 mi ENE 4.6 mph - N/A   Overcast
1:15 PM 64.4 °F 59.0 °F 83% 30.01 in 10.0 mi East 6.9 mph - N/A   Overcast
1:35 PM 64.4 °F 59.0 °F 83% 30.00 in 10.0 mi NE 4.6 mph - N/A   Overcast
2:15 PM 64.4 °F 59.0 °F 83% 29.99 in 10.0 mi NE 5.8 mph - N/A   Overcast
2:35 PM 66.2 °F 59.0 °F 78% 29.98 in 10.0 mi NE 4.6 mph - N/A   Overcast
2:55 PM 69.8 °F 60.8 °F 73% 29.98 in 10.0 mi NE 5.8 mph - N/A   Mostly Cloudy
3:15 PM 69.8 °F 59.0 °F 68% 29.98 in 10.0 mi East 3.5 mph - N/A   Scattered Clouds
3:35 PM 69.8 °F 59.0 °F 68% 29.98 in 10.0 mi SE 3.5 mph - N/A   Clear
3:55 PM 69.8 °F 59.0 °F 68% 29.98 in 10.0 mi Calm Calm - N/A   Clear
4:15 PM 69.8 °F 60.8 °F 73% 29.98 in 10.0 mi Calm Calm - N/A   Clear
4:35 PM 69.8 °F 60.8 °F 73% 29.98 in 10.0 mi Calm Calm - N/A   Clear
4:55 PM 69.8 °F 59.0 °F 68% 29.98 in 10.0 mi NNE 3.5 mph - N/A   Clear
5:15 PM 66.2 °F 59.0 °F 78% 29.98 in 10.0 mi North 3.5 mph - N/A   Clear
5:35 PM 64.4 °F 59.0 °F 83% 29.98 in 10.0 mi NNE 4.6 mph - N/A   Clear
5:55 PM 62.6 °F 59.0 °F 88% 29.99 in 10.0 mi NNE 3.5 mph - N/A   Clear
6:15 PM 62.6 °F 57.2 °F 82% 29.98 in 10.0 mi NNE 4.6 mph - N/A   Clear
6:35 PM 62.6 °F 57.2 °F 82% 29.99 in 10.0 mi NNE 4.6 mph - N/A   Clear
6:55 PM 62.6 °F 59.0 °F 88% 29.99 in 10.0 mi NE 3.5 mph - N/A   Clear
7:15 PM 59.0 °F 55.4 °F 88% 29.99 in 10.0 mi ENE 3.5 mph - N/A   Clear
7:35 PM 59.0 °F 55.4 °F 88% 30.00 in 10.0 mi ENE 4.6 mph - N/A   Clear
7:55 PM 59.0 °F 57.2 °F 94% 30.00 in 10.0 mi ENE 4.6 mph - N/A   Clear
8:15 PM 57.2 °F 55.4 °F 94% 30.00 in 10.0 mi East 5.8 mph - N/A   Clear
8:35 PM 57.2 °F 55.4 °F 94% 30.00 in 7.0 mi East 5.8 mph - N/A   Clear
8:55 PM 59.0 °F 55.4 °F 88% 30.00 in 7.0 mi East 4.6 mph - N/A   Clear
9:15 PM 57.2 °F 55.4 °F 94% 30.01 in 7.0 mi ENE 5.8 mph - N/A   Clear
9:35 PM 57.2 °F 55.4 °F 94% 30.01 in 7.0 mi ENE 4.6 mph - N/A   Clear
9:55 PM 57.2 °F 55.4 °F 94% 30.02 in 7.0 mi ENE 3.5 mph - N/A   Clear
10:15 PM 57.2 °F 55.4 °F 94% 30.02 in 5.0 mi East 5.8 mph - N/A   Clear
10:35 PM 57.2 °F 55.4 °F 94% 30.02 in 5.0 mi East 4.6 mph - N/A   Clear
10:55 PM 57.2 °F 55.4 °F 94% 30.02 in 5.0 mi East 3.5 mph - N/A   Clear
11:15 PM 57.2 °F 55.4 °F 94% 30.02 in 5.0 mi Calm Calm - N/A   Clear
11:35 PM 57.2 °F 55.4 °F 94% 30.03 in 5.0 mi Calm Calm - N/A   Clear
11:55 PM 57.2 °F 55.4 °F 94% 30.02 in 5.0 mi ESE 4.6 mph - N/A   Clear